Time,TemperatureF,DewpointF,PressureIn,WindDirection,WindDirectionDegrees,WindSpeedMPH,WindSpeedGustMPH,Humidity,HourlyPrecipIn,Conditions,Clouds,dailyrainin,SoftwareType,DateUTC
2013-02-15 00:00:00,50.0,-99.9,-100.00,NW,320,4.0,-999.0,-999,-99.99,,,-99.99,,2013-02-15 05:00:00,
2013-02-15 00:42:00,50.0,-99.9,-100.00,NW,320,4.0,-999.0,-999,-99.99,,,-99.99,,2013-02-15 05:42:00,
2013-02-15 00:52:00,50.0,-99.9,-100.00,NW,320,4.0,-999.0,-999,-99.99,,,-99.99,,2013-02-15 05:52:00,
2013-02-15 01:00:00,50.0,-99.9,-100.00,NNW,330,9.0,-999.0,-999,-99.99,,,-99.99,,2013-02-15 06:00:00,
2013-02-15 01:42:00,50.0,-99.9,-100.00,NNW,330,9.0,-999.0,-999,-99.99,,,-99.99,,2013-02-15 06:42:00,
2013-02-15 01:52:00,50.0,-99.9,-100.00,NNW,330,9.0,-999.0,-999,-99.99,,,-99.99,,2013-02-15 06:52:00,
2013-02-15 02:00:00,50.0,-99.9,-100.00,NNW,330,11.0,-999.0,-999,-99.99,,,-99.99,,2013-02-15 07:00:00,
2013-02-15 02:42:00,50.0,-99.9,-100.00,NNW,330,11.0,-999.0,-999,-99.99,,,-99.99,,2013-02-15 07:42:00,
2013-02-15 02:52:00,50.0,-99.9,-100.00,NNW,330,11.0,-999.0,-999,-99.99,,,-99.99,,2013-02-15 07:52:00,
2013-02-15 03:00:00,49.0,-99.9,-100.00,North,350,13.0,-999.0,-999,-99.99,,,-99.99,,2013-02-15 08:00:00,
2013-02-15 03:32:00,49.0,-99.9,-100.00,North,350,13.0,-999.0,-999,-99.99,,,-99.99,,2013-02-15 08:32:00,
2013-02-15 03:42:00,49.0,-99.9,-100.00,North,350,13.0,-999.0,-999,-99.99,,,-99.99,,2013-02-15 08:42:00,
2013-02-15 03:53:00,49.0,-99.9,-100.00,North,350,13.0,-999.0,-999,-99.99,,,-99.99,,2013-02-15 08:53:00,
2013-02-15 06:00:00,48.0,-99.9,-100.00,North,360,16.0,-999.0,-999,-99.99,,,-99.99,,2013-02-15 11:00:00,
2013-02-15 06:43:00,48.0,-99.9,-100.00,North,360,16.0,-999.0,-999,-99.99,,,-99.99,,2013-02-15 11:43:00,
2013-02-15 06:52:00,48.0,-99.9,-100.00,North,360,16.0,-999.0,-999,-99.99,,,-99.99,,2013-02-15 11:52:00,
2013-02-15 07:00:00,48.0,-99.9,-100.00,North,10,11.0,-999.0,-999,-99.99,,,-99.99,,2013-02-15 12:00:00,
2013-02-15 07:42:00,48.0,-99.9,-100.00,North,10,11.0,-999.0,-999,-99.99,,,-99.99,,2013-02-15 12:42:00,
2013-02-15 07:53:00,48.0,-99.9,-100.00,North,10,11.0,-999.0,-999,-99.99,,,-99.99,,2013-02-15 12:53:00,
2013-02-15 08:00:00,50.0,-99.9,-100.00,NNE,20,13.0,-999.0,-999,-99.99,,,-99.99,,2013-02-15 13:00:00,
2013-02-15 08:42:00,50.0,-99.9,-100.00,NNE,20,13.0,-999.0,-999,-99.99,,,-99.99,,2013-02-15 13:42:00,
2013-02-15 08:52:00,50.0,-99.9,-100.00,NNE,20,13.0,-999.0,-999,-99.99,,,-99.99,,2013-02-15 13:52:00,
2013-02-15 10:00:00,53.0,-99.9,-100.00,NNE,30,9.0,-999.0,-999,-99.99,,,-99.99,,2013-02-15 15:00:00,
2013-02-15 10:42:00,53.0,-99.9,-100.00,NNE,30,9.0,-999.0,-999,-99.99,,,-99.99,,2013-02-15 15:42:00,
2013-02-15 10:52:00,53.0,-99.9,-100.00,NNE,30,9.0,-999.0,-999,-99.99,,,-99.99,,2013-02-15 15:52:00,
2013-02-15 11:00:00,54.0,-99.9,-100.00,NNE,30,7.0,-999.0,-999,-99.99,,,-99.99,,2013-02-15 16:00:00,
2013-02-15 11:32:00,54.0,-99.9,-100.00,NNE,30,7.0,-999.0,-999,-99.99,,,-99.99,,2013-02-15 16:32:00,
2013-02-15 11:43:00,54.0,-99.9,-100.00,NNE,30,7.0,-999.0,-999,-99.99,,,-99.99,,2013-02-15 16:43:00,
2013-02-15 11:52:00,54.0,-99.9,-100.00,NNE,30,7.0,-999.0,-999,-99.99,,,-99.99,,2013-02-15 16:52:00,
2013-02-15 12:00:00,55.0,-99.9,-100.00,NE,40,7.0,-999.0,-999,-99.99,,,-99.99,,2013-02-15 17:00:00,
2013-02-15 12:42:00,55.0,-99.9,-100.00,NE,40,7.0,-999.0,-999,-99.99,,,-99.99,,2013-02-15 17:42:00,
2013-02-15 12:52:00,55.0,-99.9,-100.00,NE,40,7.0,-999.0,-999,-99.99,,,-99.99,,2013-02-15 17:52:00,
2013-02-15 13:00:00,56.0,-99.9,-100.00,ENE,70,4.0,-999.0,-999,-99.99,,,-99.99,,2013-02-15 18:00:00,
2013-02-15 13:42:00,56.0,-99.9,-100.00,ENE,70,4.0,-999.0,-999,-99.99,,,-99.99,,2013-02-15 18:42:00,
2013-02-15 13:53:00,56.0,-99.9,-100.00,ENE,70,4.0,-999.0,-999,-99.99,,,-99.99,,2013-02-15 18:53:00,
2013-02-15 16:00:00,55.0,-99.9,-100.00,South,180,4.0,-999.0,-999,-99.99,,,-99.99,,2013-02-15 21:00:00,
2013-02-15 16:42:00,55.0,-99.9,-100.00,South,180,4.0,-999.0,-999,-99.99,,,-99.99,,2013-02-15 21:42:00,
2013-02-15 16:52:00,55.0,-99.9,-100.00,South,180,4.0,-999.0,-999,-99.99,,,-99.99,,2013-02-15 21:52:00,
2013-02-15 17:00:00,56.0,-99.9,-100.00,South,170,7.0,-999.0,-999,-99.99,,,-99.99,,2013-02-15 22:00:00,
2013-02-15 17:42:00,56.0,-99.9,-100.00,South,170,7.0,-999.0,-999,-99.99,,,-99.99,,2013-02-15 22:42:00,
2013-02-15 17:52:00,56.0,-99.9,-100.00,South,170,7.0,-999.0,-999,-99.99,,,-99.99,,2013-02-15 22:52:00,
2013-02-15 18:00:00,54.0,-99.9,-100.00,South,180,7.0,-999.0,-999,-99.99,,,-99.99,,2013-02-15 23:00:00,
2013-02-15 18:42:00,54.0,-99.9,-100.00,South,180,7.0,-999.0,-999,-99.99,,,-99.99,,2013-02-15 23:42:00,
2013-02-15 18:52:00,54.0,-99.9,-100.00,South,180,7.0,-999.0,-999,-99.99,,,-99.99,,2013-02-15 23:52:00,
2013-02-15 22:00:00,54.0,-99.9,-100.00,SSW,210,7.0,-999.0,-999,-99.99,,,-99.99,,2013-02-16 03:00:00,
2013-02-15 22:42:00,54.0,-99.9,-100.00,SSW,210,7.0,-999.0,-999,-99.99,,,-99.99,,2013-02-16 03:42:00,
2013-02-15 22:52:00,54.0,-99.9,-100.00,SSW,210,7.0,-999.0,-999,-99.99,,,-99.99,,2013-02-16 03:52:00,
2013-02-15 23:00:00,54.0,-99.9,-100.00,WSW,240,9.0,-999.0,-999,-99.99,,,-99.99,,2013-02-16 04:00:00,
2013-02-15 23:42:00,54.0,-99.9,-100.00,WSW,240,9.0,-999.0,-999,-99.99,,,-99.99,,2013-02-16 04:42:00,
2013-02-15 23:52:00,54.0,-99.9,-100.00,WSW,240,9.0,-999.0,-999,-99.99,,,-99.99,,2013-02-16 04:52:00,